Regional Weather Roundup
Issued by NWS Goodland, KS

Home | Current Version | Previous Version | Graphics & Text | Print | Product List | Glossary On
Versions: 1 2 3 4 5 6 7 8 9 10 11 12 13 14 15 16 17 18 19 20 21 22 23 24 25 26 27 28 29 30 31 32 33 34 35 36 37 38 39 40 41 42 43 44 45 46 47 48 49 50
000
ASUS43 KGLD 252059
RWRGLD

GOODLAND FORECAST AREA HOURLY WEATHER ROUNDUP
NATIONAL WEATHER SERVICE GOODLAND KS
300 PM MDT SAT OCT 25 2014

...OFFICIAL OBSERVATIONS...

CITY           SKY/WX    TMP DP  RH WIND       PRES   REMARKS
GOODLAND KS    SUNNY     85  37  18 S14G22    30.04F
HILL CITY KS   SUNNY     88  45  22 S8        30.00F
IMPERIAL NEB   SUNNY     81  34  18 E8        30.02F
MCCOOK NEB     SUNNY     82  45  27 SE9       30.01F
AKRON CO       SUNNY     80  24  12 E7        30.08F
BURLINGTON CO  SUNNY     81  33  17 VRB3      30.07F
LIMON CO       SUNNY     79  18  10 E7        30.12F
$$

...UNOFFICIAL OBSERVATIONS...

CITY           SKY/WX    TMP DP  RH WIND       PRES   REMARKS
COLBY KS       SUNNY     88  45  22 SE13      30.03F
NORTON KS      SUNNY     82  39  21 SE8       30.00F
SHARON SPRINGS   N/A     86  44  22 S10         N/A
TRIBUNE KS     SUNNY     84  52  32 S12       30.06F
KIT CARSON CO    N/A     82  39  21 N5G12       N/A
YUMA CO          N/A     80  33  18 E5          N/A
$$



USA.gov is the U.S. government's official web portal to all federal, state and local government web resources and services.